RCTP

Taipei/Taiwan Taoyuan International Airport

Airport
ICAO code
RCTP
IATA Code
TPE
Summary
ICAO Region
APAC
ICAO Territory
Location

Taoyuan, Northern Taiwan

Serving
Taipei
Elevation
119 ft
Coordinates
25° 4' 47" N , 121° 14' 0" E
KCC
Airport LOS
Parallel Runway Operation
Airport WX
Tropical Revolving Storm
Metar
Observation
RCTP 042000Z 02013KT 5000 -DZ SCT002 BKN003 BKN010 17/16 Q1016 NOSIG RMK A3001
Station
Chiang Kai Shek
Date/Time
2023-02-04 20:00:00
Wind direction
20°
Wind speed
13 kts
Lowest cloud amount
scattered clouds
Temperature
17°C
Dew point
16°C
Humidity
93%
QNH
1016 hPa
Weather condition
n/a

Description

Taiwan Taoyuan International Airport is an international airport located in Dayuan Township, Taoyuan County, Taiwan. It is one of three Taiwanese airports with regular international flights. Opened in 1979, the airport was known as Chiang Kai-shek International Airport until the name was changed in 2006 to its current name.

Climatology

Humid “subtropical” climate (Köppen climate classification Cfa) - characterized by hot, humid summers and cool winters. Significant amounts of precipitation occur in all seasons in most areas. Winter rainfall is associated with large storms.

Runways

Designator Length Width Surface Rops
6/24 3350 60 CON Yes/Yes
5/23 3660 60 CON Yes/Yes

Airport map

Aerial View

Airport accidents

SKYbrary Partners:

Safety knowledge contributed by: